STARLINK-35744

Last updated on Wed Dec 31 2025 00:02:06 GMT+0000 (Coordinated Universal Time)

1 66581U 25268AA 25364.58335648 .00055715 00000+0 20211-2 0 9991 2 66581 43.0009 17.1472 0001220 273.8782 63.6765 15.27545266 5920
UTC large
Height (km)
Speed (km/s)
/
Latitude / Longitude
Inclination (degrees)
Orbital Period (minutes)
Azimuth
Elevation
Range (km)
Doppler Factor

Next 0 passes for location: London (51.5072 / 0.1276)

Sorry there are no passes over London.